Location: Balmoral
(33.0667°S, 151.5833°E)
Time: 17:00:41
(UTC+00:00)

Cosmos 1503 Rocket - Pass Details

Date: 18 September 2020
Orbit: 753 x 790 km, 74.0° (Epoch: 25 October)

Event Time Altitude Azimuth Distance (km) Brightness Sun altitude
Exits shadow 18:35:53 18° 314° (NW) 1,800 5.5 -15.8°
Maximum altitude 18:39:26 44° 249° (WSW) 1,062 4.3 -15.0°
Drops below altitude 10° 18:44:31 10° 177° (S) 2,348 6.6 -14.0°
Sets 18:47:03 0° 170° (S) 3,288 7.5 -13.4°
